Location: Eckley Miners' Village
(40.9930°N, 75.8630°W)
Time: 23:48:55
(UTC-04:00)

Vanguard 1 Rocket - Pass Details

Date: 17 March 2026
Orbit: 654 x 4213 km, 34.3° (Epoch: 20 April)

Event Time Altitude Azimuth Distance (km) Brightness Sun altitude
Exits shadow 06:29:27 - 227° (SW) 4,628 10.5 -8.8°
Reaches altitude 10° 06:33:42 10° 215° (SW) 3,120 9.8 -8.0°
Maximum altitude 06:39:04 23° 165° (SSE) 1,759 9.0 -7.0°
Drops below altitude 10° 06:43:00 10° 111° (ESE) 2,214 10.6 -6.3°
Sets 06:45:27 0° 96° (E) 3,011 12.4 -5.8°
